owner,sensor,date,latitude,longitude,vertical_datum,wind_speed,wind_to_direction,wind_speed_of_gust,qcFlag 
TABS,ioos:station:wmo:42045:1,2015-05-01T00:00:00Z,26.2168,-96.4998,4.0,2.518729839,20.44928933,3.68,'11111222,11111222,11111222' 
TABS,ioos:station:wmo:42045:1,2015-05-01T00:30:00Z,26.2168,-96.4998,4.0,2.487448492,9.954373207,3.26,'11111222,11111222,11111222' 
TABS,ioos:station:wmo:42045:1,2015-05-01T01:00:00Z,26.2168,-96.4998,4.0,2.33,26.78472241,3.34,'11111222,11111222,11111222' 
TABS,ioos:station:wmo:42045:1,2015-05-01T01:30:00Z,26.2168,-96.4998,4.0,2.280372777,19.46765322,3.1,'11111222,11111222,11111222' 
TABS,ioos:station:wmo:42045:1,2015-05-01T02:00:00Z,26.2168,-96.4998,4.0,1.828004376,36.99497417,2.65,'11111222,11111222,11111222' 
TABS,ioos:station:wmo:42045:1,2015-05-01T02:30:00Z,26.2168,-96.4998,4.0,2.277279078,46.0671815,3.2,'11111222,11111222,11111222' 
TABS,ioos:station:wmo:42045:1,2015-05-01T03:00:00Z,26.2168,-96.4998,4.0,1.740488437,65.20150462,2.47,'11111222,11111222,11111222' 
TABS,ioos:station:wmo:42045:1,2015-05-01T03:30:00Z,26.2168,-96.4998,4.0,1.886796226,68.87490934,2.7,'11111222,11111222,11111222' 
TABS,ioos:station:wmo:42045:1,2015-05-01T04:00:00Z,26.2168,-96.4998,4.0,1.728033564,79.66510058,2.37,'11111222,11111222,11111222' 
TABS,ioos:station:wmo:42045:1,2015-05-01T04:30:00Z,26.2168,-96.4998,4.0,1.805436235,85.55220463,2.62,'11111222,11111222,11111222' 
TABS,ioos:station:wmo:42045:1,2015-05-01T05:00:00Z,26.2168,-96.4998,4.0,1.951435369,101.8285649,2.62,'11111222,11111222,11111222' 
TABS,ioos:station:wmo:42045:1,2015-05-01T05:30:00Z,26.2168,-96.4998,4.0,2.267619898,109.3142704,3.23,'11111222,11111222,11111222' 
TABS,ioos:station:wmo:42045:1,2015-05-01T06:00:00Z,26.2168,-96.4998,4.0,2.719742635,109.101525,3.42,'11111222,11111222,11111222' 
TABS,ioos:station:wmo:42045:1,2015-05-01T06:30:00Z,26.2168,-96.4998,4.0,2.715529414,115.0554955,3.75,'11111222,11111222,11111222' 
TABS,ioos:station:wmo:42045:1,2015-05-01T07:00:00Z,26.2168,-96.4998,4.0,2.870766448,124.3546772,3.61,'11111222,11111222,11111222' 
TABS,ioos:station:wmo:42045:1,2015-05-01T07:30:00Z,26.2168,-96.4998,4.0,3.062172431,134.0741388,4.14,'11111222,11111222,11111222' 
TABS,ioos:station:wmo:42045:1,2015-05-01T08:00:00Z,26.2168,-96.4998,4.0,3.889318706,134.3752971,4.74,'11111222,11111222,11111222' 
TABS,ioos:station:wmo:42045:1,2015-05-01T08:30:00Z,26.2168,-96.4998,4.0,2.911580327,138.4811635,4.0,'11111222,11111222,11111222' 
TABS,ioos:station:wmo:42045:1,2015-05-01T09:00:00Z,26.2168,-96.4998,4.0,3.000149996,139.4611535,4.1,'11111222,11111222,11111222' 
TABS,ioos:station:wmo:42045:1,2015-05-01T09:30:00Z,26.2168,-96.4998,4.0,2.429917694,138.5038391,3.17,'11111222,11111222,11111222' 
TABS,ioos:station:wmo:42045:1,2015-05-01T10:00:00Z,26.2168,-96.4998,4.0,2.230807029,144.6716141,3.25,'11111222,11111222,11111222' 
TABS,ioos:station:wmo:42045:1,2015-05-01T10:30:00Z,26.2168,-96.4998,4.0,1.758237754,139.1515912,2.58,'11111222,11111222,11111222' 
TABS,ioos:station:wmo:42045:1,2015-05-01T11:00:00Z,26.2168,-96.4998,4.0,1.872965563,120.1246685,2.77,'11111222,11111222,11111222' 
TABS,ioos:station:wmo:42045:1,2015-05-01T11:30:00Z,26.2168,-96.4998,4.0,2.311579547,103.2551025,3.24,'11111222,11111222,11111222' 
TABS,ioos:station:wmo:42045:1,2015-05-01T12:00:00Z,26.2168,-96.4998,4.0,2.862725974,105.3959342,3.79,'11111222,11111222,11111222' 
TABS,ioos:station:wmo:42045:1,2015-05-01T12:30:00Z,26.2168,-96.4998,4.0,2.826888749,105.8065776,3.56,'11111222,11111222,11111222' 
TABS,ioos:station:wmo:42045:1,2015-05-01T13:00:00Z,26.2168,-96.4998,4.0,2.645770209,100.673263,3.51,'11111222,11111222,11111222' 
TABS,ioos:station:wmo:42045:1,2015-05-01T13:30:00Z,26.2168,-96.4998,4.0,2.550705785,91.34830505,3.59,'11111222,11111222,11111222' 
TABS,ioos:station:wmo:42045:1,2015-05-01T14:00:00Z,26.2168,-96.4998,4.0,2.64425793,93.25235891,3.53,'11111222,11111222,11111222' 
TABS,ioos:station:wmo:42045:1,2015-05-01T14:30:00Z,26.2168,-96.4998,4.0,2.661522121,88.06174385,3.68,'11111222,11111222,11111222' 
TABS,ioos:station:wmo:42045:1,2015-05-01T15:00:00Z,26.2168,-96.4998,4.0,3.133129426,87.43854154,3.92,'11111222,11111222,11111222' 
TABS,ioos:station:wmo:42045:1,2015-05-01T15:30:00Z,26.2168,-96.4998,4.0,3.611993909,77.04066126,4.23,'11111222,11111222,11111222' 
TABS,ioos:station:wmo:42045:1,2015-05-01T16:00:00Z,26.2168,-96.4998,4.0,3.277682108,73.33386054,3.93,'11111222,11111222,11111222' 
TABS,ioos:station:wmo:42045:1,2015-05-01T16:30:00Z,26.2168,-96.4998,4.0,2.582343897,92.44177993,3.31,'11111222,11111222,11111222' 
TABS,ioos:station:wmo:42045:1,2015-05-01T17:00:00Z,26.2168,-96.4998,4.0,2.893389016,87.22617958,3.7,'11111222,11111222,11111222' 
TABS,ioos:station:wmo:42045:1,2015-05-01T17:30:00Z,26.2168,-96.4998,4.0,2.844819854,84.14871643,3.7,'11111222,11111222,11111222' 
TABS,ioos:station:wmo:42045:1,2015-05-01T18:00:00Z,26.2168,-96.4998,4.0,2.701851217,75.86050383,3.37,'11111222,11111222,11111222' 
TABS,ioos:station:wmo:42045:1,2015-05-01T18:30:00Z,26.2168,-96.4998,4.0,2.588146055,76.82247024,3.51,'11111222,11111222,11111222' 
TABS,ioos:station:wmo:42045:1,2015-05-01T19:00:00Z,26.2168,-96.4998,4.0,2.763059898,87.30286423,3.68,'11111222,11111222,11111222' 
TABS,ioos:station:wmo:42045:1,2015-05-01T19:30:00Z,26.2168,-96.4998,4.0,2.979748312,81.89668874,4.0,'11111222,11111222,11111222' 
TABS,ioos:station:wmo:42045:1,2015-05-01T20:00:00Z,26.2168,-96.4998,4.0,2.702665351,87.45478065,3.49,'11111222,11111222,11111222' 
TABS,ioos:station:wmo:42045:1,2015-05-01T20:30:00Z,26.2168,-96.4998,4.0,3.002399041,87.7089744,3.73,'11111222,11111222,11111222' 
TABS,ioos:station:wmo:42045:1,2015-05-01T21:00:00Z,26.2168,-96.4998,4.0,2.630969403,95.23427033,3.51,'11111222,11111222,11111222' 
TABS,ioos:station:wmo:42045:1,2015-05-01T21:30:00Z,26.2168,-96.4998,4.0,2.321055794,91.72864453,3.01,'11111222,11111222,11111222' 
TABS,ioos:station:wmo:42045:1,2015-05-01T22:00:00Z,26.2168,-96.4998,4.0,2.469514122,79.73626025,3.5,'11111222,11111222,11111222' 
TABS,ioos:station:wmo:42045:1,2015-05-01T22:30:00Z,26.2168,-96.4998,4.0,2.661296676,78.73189534,3.37,'11111222,11111222,11111222' 
TABS,ioos:station:wmo:42045:1,2015-05-01T23:00:00Z,26.2168,-96.4998,4.0,3.574534935,87.11316729,4.56,'11111222,11111222,11111222' 
TABS,ioos:station:wmo:42045:1,2015-05-01T23:30:00Z,26.2168,-96.4998,4.0,3.778107992,96.99374995,5.01,'11111222,11111222,11111222' 
TABS,ioos:station:wmo:42045:1,2015-05-02T00:00:00Z,26.2168,-96.4998,4.0,3.930407104,95.84154752,4.83,'11111222,11111222,11111222' 
TABS,ioos:station:wmo:42045:1,2015-05-02T00:30:00Z,26.2168,-96.4998,4.0,4.011508444,91.57172787,5.06,'11111222,11111222,11111222' 
TABS,ioos:station:wmo:42045:1,2015-05-02T01:00:00Z,26.2168,-96.4998,4.0,4.093812404,100.1299895,4.9,'11111222,11111222,11111222' 
TABS,ioos:station:wmo:42045:1,2015-05-02T01:30:00Z,26.2168,-96.4998,4.0,3.751586331,99.51293628,4.3,'11111222,11111222,11111222' 
TABS,ioos:station:wmo:42045:1,2015-05-02T02:00:00Z,26.2168,-96.4998,4.0,3.295147948,98.37640681,3.88,'11111222,11111222,11111222' 
TABS,ioos:station:wmo:42045:1,2015-05-02T02:30:00Z,26.2168,-96.4998,4.0,3.78845615,108.1483725,4.52,'11111222,11111222,11111222' 
TABS,ioos:station:wmo:42045:1,2015-05-02T03:00:00Z,26.2168,-96.4998,4.0,3.949810122,101.5379152,4.79,'11111222,11111222,11111222' 
TABS,ioos:station:wmo:42045:1,2015-05-02T03:30:00Z,26.2168,-96.4998,4.0,3.803800731,105.2422931,4.58,'11111222,11111222,11111222' 
TABS,ioos:station:wmo:42045:1,2015-05-02T04:00:00Z,26.2168,-96.4998,4.0,3.393081196,110.8924011,4.51,'11111222,11111222,11111222' 
TABS,ioos:station:wmo:42045:1,2015-05-02T04:30:00Z,26.2168,-96.4998,4.0,3.777525645,105.5082577,4.64,'11111222,11111222,11111222' 
TABS,ioos:station:wmo:42045:1,2015-05-02T05:00:00Z,26.2168,-96.4998,4.0,3.945288329,106.6439858,5.05,'11111222,11111222,11111222' 
TABS,ioos:station:wmo:42045:1,2015-05-02T05:30:00Z,26.2168,-96.4998,4.0,3.848428251,120.964105,4.83,'11111222,11111222,11111222' 
TABS,ioos:station:wmo:42045:1,2015-05-02T06:00:00Z,26.2168,-96.4998,4.0,3.738876837,116.017143,4.67,'11111222,11111222,11111222' 
TABS,ioos:station:wmo:42045:1,2015-05-02T06:30:00Z,26.2168,-96.4998,4.0,3.936495904,115.2634603,4.75,'11111222,11111222,11111222' 
TABS,ioos:station:wmo:42045:1,2015-05-02T07:00:00Z,26.2168,-96.4998,4.0,3.184211048,116.8872922,3.94,'11111222,11111222,11111222' 
TABS,ioos:station:wmo:42045:1,2015-05-02T07:30:00Z,26.2168,-96.4998,4.0,3.438735233,121.5641871,4.47,'11111222,11111222,11111222' 
TABS,ioos:station:wmo:42045:1,2015-05-02T08:00:00Z,26.2168,-96.4998,4.0,2.772381648,127.8209386,3.68,'11111222,11111222,11111222' 
TABS,ioos:station:wmo:42045:1,2015-05-02T08:30:00Z,26.2168,-96.4998,4.0,3.22667011,118.7100145,3.87,'11111222,11111222,11111222' 
TABS,ioos:station:wmo:42045:1,2015-05-02T09:00:00Z,26.2168,-96.4998,4.0,3.20632188,119.5235872,4.03,'11111222,11111222,11111222' 
TABS,ioos:station:wmo:42045:1,2015-05-02T09:30:00Z,26.2168,-96.4998,4.0,3.246490413,120.7522362,3.93,'11111222,11111222,11111222' 
TABS,ioos:station:wmo:42045:1,2015-05-02T10:00:00Z,26.2168,-96.4998,4.0,3.237483591,128.6048608,4.05,'11111222,11111222,11111222' 
TABS,ioos:station:wmo:42045:1,2015-05-02T10:30:00Z,26.2168,-96.4998,4.0,3.823676242,116.56541,4.64,'11111222,11111222,11111222' 
TABS,ioos:station:wmo:42045:1,2015-05-02T11:00:00Z,26.2168,-96.4998,4.0,3.672410652,117.7516302,4.66,'11111222,11111222,11111222' 
TABS,ioos:station:wmo:42045:1,2015-05-02T11:30:00Z,26.2168,-96.4998,4.0,3.966925762,120.4439254,4.73,'11111222,11111222,11111222' 
TABS,ioos:station:wmo:42045:1,2015-05-02T12:00:00Z,26.2168,-96.4998,4.0,4.235150529,116.8074176,4.95,'11111222,11111222,11111222' 
TABS,ioos:station:wmo:42045:1,2015-05-02T12:30:00Z,26.2168,-96.4998,4.0,4.606300034,116.56541,5.7,'11111222,11111222,11111222' 
TABS,ioos:station:wmo:42045:1,2015-05-02T13:00:00Z,26.2168,-96.4998,4.0,4.100780414,119.1906642,4.88,'11111222,11111222,11111222' 
TABS,ioos:station:wmo:42045:1,2015-05-02T13:30:00Z,26.2168,-96.4998,4.0,3.87362879,119.5434237,4.69,'11111222,11111222,11111222' 
TABS,ioos:station:wmo:42045:1,2015-05-02T14:00:00Z,26.2168,-96.4998,4.0,4.660439893,113.9254057,5.4,'11111222,11111222,11111222' 
TABS,ioos:station:wmo:42045:1,2015-05-02T14:30:00Z,26.2168,-96.4998,4.0,4.236083096,113.6607224,4.98,'11111222,11111222,11111222' 
TABS,ioos:station:wmo:42045:1,2015-05-02T15:00:00Z,26.2168,-96.4998,4.0,4.280023364,117.1042246,5.32,'11111222,11111222,11111222' 
TABS,ioos:station:wmo:42045:1,2015-05-02T15:30:00Z,26.2168,-96.4998,4.0,4.141219627,116.3797876,5.07,'11111222,11111222,11111222' 
TABS,ioos:station:wmo:42045:1,2015-05-02T16:00:00Z,26.2168,-96.4998,4.0,4.552713477,116.9031014,5.39,'11111222,11111222,11111222' 
TABS,ioos:station:wmo:42045:1,2015-05-02T16:30:00Z,26.2168,-96.4998,4.0,4.263543127,120.595353,5.11,'11111222,11111222,11111222' 
TABS,ioos:station:wmo:42045:1,2015-05-02T17:00:00Z,26.2168,-96.4998,4.0,4.317371886,122.0338637,5.76,'11111222,11111222,11111222' 
TABS,ioos:station:wmo:42045:1,2015-05-02T17:30:00Z,26.2168,-96.4998,4.0,4.448381728,114.4336589,5.29,'11111222,11111222,11111222' 
TABS,ioos:station:wmo:42045:1,2015-05-02T18:00:00Z,26.2168,-96.4998,4.0,4.424138334,117.8976267,5.19,'11111222,11111222,11111222' 
TABS,ioos:station:wmo:42045:1,2015-05-02T18:30:00Z,26.2168,-96.4998,4.0,4.775143977,108.8147624,5.48,'11111222,11111222,11111222' 
TABS,ioos:station:wmo:42045:1,2015-05-02T19:00:00Z,26.2168,-96.4998,4.0,4.802343178,112.3999721,5.74,'11111222,11111222,11111222' 
TABS,ioos:station:wmo:42045:1,2015-05-02T19:30:00Z,26.2168,-96.4998,4.0,4.938714408,115.164437,5.91,'11111222,11111222,11111222' 
TABS,ioos:station:wmo:42045:1,2015-05-02T20:00:00Z,26.2168,-96.4998,4.0,4.884639188,119.2942097,6.01,'11111222,11111222,11111222' 
TABS,ioos:station:wmo:42045:1,2015-05-02T20:30:00Z,26.2168,-96.4998,4.0,4.877909388,118.6670594,5.95,'11111222,11111222,11111222' 
TABS,ioos:station:wmo:42045:1,2015-05-02T21:00:00Z,26.2168,-96.4998,4.0,5.043699039,111.2744044,5.82,'11111222,11111222,11111222' 
TABS,ioos:station:wmo:42045:1,2015-05-02T21:30:00Z,26.2168,-96.4998,4.0,5.325410782,108.8436022,6.25,'11111222,11111222,11111222' 
TABS,ioos:station:wmo:42045:1,2015-05-02T22:00:00Z,26.2168,-96.4998,4.0,5.173625421,108.0150727,6.15,'11111222,11111222,11111222' 
TABS,ioos:station:wmo:42045:1,2015-05-02T22:30:00Z,26.2168,-96.4998,4.0,5.360485053,110.5313981,6.24,'11111222,11111222,11111222' 
TABS,ioos:station:wmo:42045:1,2015-05-02T23:00:00Z,26.2168,-96.4998,4.0,5.480082116,112.3065738,6.28,'11111222,11111222,11111222' 
TABS,ioos:station:wmo:42045:1,2015-05-02T23:30:00Z,26.2168,-96.4998,4.0,5.497208382,106.1605298,6.48,'11111222,11111222,11111222' 
TABS,ioos:station:wmo:42045:1,2015-05-03T00:00:00Z,26.2168,-96.4998,4.0,5.873780725,109.70013,6.99,'11111222,11111222,11111222' 
TABS,ioos:station:wmo:42045:1,2015-05-03T00:30:00Z,26.2168,-96.4998,4.0,6.046354273,112.1537139,7.25,'11111222,11111222,11111222' 
TABS,ioos:station:wmo:42045:1,2015-05-03T01:00:00Z,26.2168,-96.4998,4.0,6.097155074,114.0010191,7.35,'11111222,11111222,11111222' 
TABS,ioos:station:wmo:42045:1,2015-05-03T01:30:00Z,26.2168,-96.4998,4.0,6.157832411,112.2337348,7.07,'11111222,11111222,11111222' 
TABS,ioos:station:wmo:42045:1,2015-05-03T02:00:00Z,26.2168,-96.4998,4.0,6.101278555,117.7414018,7.03,'11111222,11111222,11111222' 
TABS,ioos:station:wmo:42045:1,2015-05-03T02:30:00Z,26.2168,-96.4998,4.0,5.750626053,120.4002234,6.78,'11111222,11111222,11111222' 
TABS,ioos:station:wmo:42045:1,2015-05-03T03:00:00Z,26.2168,-96.4998,4.0,5.898686294,118.781359,6.97,'11111222,11111222,11111222' 
TABS,ioos:station:wmo:42045:1,2015-05-03T03:30:00Z,26.2168,-96.4998,4.0,5.790138168,118.4686608,7.03,'11111222,11111222,11111222' 
TABS,ioos:station:wmo:42045:1,2015-05-03T04:00:00Z,26.2168,-96.4998,4.0,6.34685749,119.7564298,7.16,'11111222,11111222,11111222' 
TABS,ioos:station:wmo:42045:1,2015-05-03T04:30:00Z,26.2168,-96.4998,4.0,6.45108518,119.9435248,7.54,'11111222,11111222,11111222' 
TABS,ioos:station:wmo:42045:1,2015-05-03T05:00:00Z,26.2168,-96.4998,4.0,6.181278185,118.9289141,7.54,'11111222,11111222,11111222' 
TABS,ioos:station:wmo:42045:1,2015-05-03T05:30:00Z,26.2168,-96.4998,4.0,6.304918715,121.7745443,7.43,'11111222,11111222,11111222' 
TABS,ioos:station:wmo:42045:1,2015-05-03T06:00:00Z,26.2168,-96.4998,4.0,6.341293243,122.6378522,7.45,'11111222,11111222,11111222' 
TABS,ioos:station:wmo:42045:1,2015-05-03T06:30:00Z,26.2168,-96.4998,4.0,6.160275968,124.2837247,7.06,'11111222,11111222,11111222' 
TABS,ioos:station:wmo:42045:1,2015-05-03T07:00:00Z,26.2168,-96.4998,4.0,5.600008929,132.1776581,6.68,'11111222,11111222,11111222' 
TABS,ioos:station:wmo:42045:1,2015-05-03T07:30:00Z,26.2168,-96.4998,4.0,6.168451994,130.793042,7.25,'11111222,11111222,11111222' 
TABS,ioos:station:wmo:42045:1,2015-05-03T08:00:00Z,26.2168,-96.4998,4.0,6.229807381,134.5450818,7.32,'11111222,11111222,11111222' 
TABS,ioos:station:wmo:42045:1,2015-05-03T08:30:00Z,26.2168,-96.4998,4.0,6.058258826,131.3197021,6.97,'11111222,11111222,11111222' 
TABS,ioos:station:wmo:42045:1,2015-05-03T09:00:00Z,26.2168,-96.4998,4.0,6.077269124,138.3354508,7.26,'11111222,11111222,11111222' 
TABS,ioos:station:wmo:42045:1,2015-05-03T09:30:00Z,26.2168,-96.4998,4.0,6.150325195,137.4383585,7.27,'11111222,11111222,11111222' 
TABS,ioos:station:wmo:42045:1,2015-05-03T10:00:00Z,26.2168,-96.4998,4.0,5.944981077,144.1713225,7.32,'11111222,11111222,11111222' 
TABS,ioos:station:wmo:42045:1,2015-05-03T10:30:00Z,26.2168,-96.4998,4.0,5.565770387,140.102469,6.6,'11111222,11111222,11111222' 
TABS,ioos:station:wmo:42045:1,2015-05-03T11:00:00Z,26.2168,-96.4998,4.0,5.41,140.926992,6.57,'11111222,11111222,11111222' 
TABS,ioos:station:wmo:42045:1,2015-05-03T11:30:00Z,26.2168,-96.4998,4.0,5.213712689,140.4480023,6.11,'11111222,11111222,11111222' 
TABS,ioos:station:wmo:42045:1,2015-05-03T12:00:00Z,26.2168,-96.4998,4.0,4.946079255,142.8060438,5.94,'11111222,11111222,11111222' 
TABS,ioos:station:wmo:42045:1,2015-05-03T12:30:00Z,26.2168,-96.4998,4.0,4.758329539,143.8047177,5.67,'11111222,11111222,11111222' 
TABS,ioos:station:wmo:42045:1,2015-05-03T13:00:00Z,26.2168,-96.4998,4.0,4.221433406,135.0962882,4.9,'11111222,11111222,11111222' 
TABS,ioos:station:wmo:42045:1,2015-05-03T13:30:00Z,26.2168,-96.4998,4.0,4.352895588,132.4865113,5.53,'11111222,11111222,11111222' 
TABS,ioos:station:wmo:42045:1,2015-05-03T14:00:00Z,26.2168,-96.4998,4.0,4.046492308,128.881271,5.07,'11111222,11111222,11111222' 
TABS,ioos:station:wmo:42045:1,2015-05-03T14:30:00Z,26.2168,-96.4998,4.0,4.171450587,128.3812779,4.85,'11111222,11111222,11111222' 
TABS,ioos:station:wmo:42045:1,2015-05-03T15:00:00Z,26.2168,-96.4998,4.0,3.678369204,124.8137097,4.52,'11111222,11111222,11111222' 
TABS,ioos:station:wmo:42045:1,2015-05-03T15:30:00Z,26.2168,-96.4998,4.0,3.654654566,120.7758985,4.27,'11111222,11111222,11111222' 
TABS,ioos:station:wmo:42045:1,2015-05-03T16:00:00Z,26.2168,-96.4998,4.0,3.544009029,126.740897,4.19,'11111222,11111222,11111222' 
TABS,ioos:station:wmo:42045:1,2015-05-03T16:30:00Z,26.2168,-96.4998,4.0,4.087468654,134.207347,4.95,'11111222,11111222,11111222' 
TABS,ioos:station:wmo:42045:1,2015-05-03T17:00:00Z,26.2168,-96.4998,4.0,4.10182886,135.9880738,4.58,'11111222,11111222,11111222' 
TABS,ioos:station:wmo:42045:1,2015-05-03T17:30:00Z,26.2168,-96.4998,4.0,3.889087297,135.0003157,4.47,'11111222,11111222,11111222' 
TABS,ioos:station:wmo:42045:1,2015-05-03T18:00:00Z,26.2168,-96.4998,4.0,3.761980861,122.2963218,4.23,'11111222,11111222,11111222' 
TABS,ioos:station:wmo:42045:1,2015-05-03T18:30:00Z,26.2168,-96.4998,4.0,3.886450823,117.0928579,4.95,'11111222,11111222,11111222' 
TABS,ioos:station:wmo:42045:1,2015-05-03T19:00:00Z,26.2168,-96.4998,4.0,4.34277561,117.2734561,4.93,'11111222,11111222,11111222' 
TABS,ioos:station:wmo:42045:1,2015-05-03T19:30:00Z,26.2168,-96.4998,4.0,4.423324542,117.3184944,5.08,'11111222,11111222,11111222' 
TABS,ioos:station:wmo:42045:1,2015-05-03T20:00:00Z,26.2168,-96.4998,4.0,4.131888188,111.2867763,5.02,'11111222,11111222,11111222' 
TABS,ioos:station:wmo:42045:1,2015-05-03T20:30:00Z,26.2168,-96.4998,4.0,4.099134055,114.5021579,4.89,'11111222,11111222,11111222' 
TABS,ioos:station:wmo:42045:1,2015-05-03T21:00:00Z,26.2168,-96.4998,4.0,3.995059449,115.02592,4.8,'11111222,11111222,11111222' 
TABS,ioos:station:wmo:42045:1,2015-05-03T21:30:00Z,26.2168,-96.4998,4.0,3.870051679,112.3241341,4.69,'11111222,11111222,11111222' 
TABS,ioos:station:wmo:42045:1,2015-05-03T22:00:00Z,26.2168,-96.4998,4.0,4.042833165,111.170158,4.94,'11111222,11111222,11111222' 
TABS,ioos:station:wmo:42045:1,2015-05-03T22:30:00Z,26.2168,-96.4998,4.0,4.386171451,111.5349515,5.28,'11111222,11111222,11111222' 
TABS,ioos:station:wmo:42045:1,2015-05-03T23:00:00Z,26.2168,-96.4998,4.0,4.529293543,112.3185773,6.01,'11111222,11111222,11111222' 
TABS,ioos:station:wmo:42045:1,2015-05-03T23:30:00Z,26.2168,-96.4998,4.0,5.184361099,113.8955265,6.02,'11111222,11111222,11111222' 
TABS,ioos:station:wmo:42045:1,2015-05-04T00:00:00Z,26.2168,-96.4998,4.0,5.242947644,117.9828458,6.38,'11111222,11111222,11111222' 
TABS,ioos:station:wmo:42045:1,2015-05-04T00:30:00Z,26.2168,-96.4998,4.0,5.738466694,120.5873907,6.81,'11111222,11111222,11111222' 
TABS,ioos:station:wmo:42045:1,2015-05-04T01:00:00Z,26.2168,-96.4998,4.0,5.496626238,120.6244468,6.51,'11111222,11111222,11111222' 
TABS,ioos:station:wmo:42045:1,2015-05-04T01:30:00Z,26.2168,-96.4998,4.0,6.041076063,133.3905573,7.1,'11111222,11111222,11111222' 
TABS,ioos:station:wmo:42045:1,2015-05-04T02:00:00Z,26.2168,-96.4998,4.0,5.119550762,125.4599562,5.94,'11111222,11111222,11111222' 
TABS,ioos:station:wmo:42045:1,2015-05-04T02:30:00Z,26.2168,-96.4998,4.0,5.552017651,126.7257552,6.61,'11111222,11111222,11111222' 
TABS,ioos:station:wmo:42045:1,2015-05-04T03:00:00Z,26.2168,-96.4998,4.0,6.411380507,130.5725415,7.77,'11111222,11111222,11111222' 
TABS,ioos:station:wmo:42045:1,2015-05-04T03:30:00Z,26.2168,-96.4998,4.0,6.867328447,137.8332533,8.16,'11111222,11111222,11111222' 
TABS,ioos:station:wmo:42045:1,2015-05-04T04:00:00Z,26.2168,-96.4998,4.0,7.360557044,141.6200999,8.44,'11111222,11111222,11111222' 
TABS,ioos:station:wmo:42045:1,2015-05-04T04:30:00Z,26.2168,-96.4998,4.0,6.601605865,140.0391589,7.95,'11111222,11111222,11111222' 
TABS,ioos:station:wmo:42045:1,2015-05-04T05:00:00Z,26.2168,-96.4998,4.0,6.696387086,143.7464575,8.34,'11111222,11111222,11111222' 
TABS,ioos:station:wmo:42045:1,2015-05-04T05:30:00Z,26.2168,-96.4998,4.0,6.702096687,142.8226367,7.82,'11111222,11111222,11111222' 
TABS,ioos:station:wmo:42045:1,2015-05-04T06:00:00Z,26.2168,-96.4998,4.0,6.477074957,142.0865235,7.53,'11111222,11111222,11111222' 
TABS,ioos:station:wmo:42045:1,2015-05-04T06:30:00Z,26.2168,-96.4998,4.0,6.779749258,141.8288334,7.78,'11111222,11111222,11111222' 
TABS,ioos:station:wmo:42045:1,2015-05-04T07:00:00Z,26.2168,-96.4998,4.0,6.532442116,140.2171925,7.76,'11111222,11111222,11111222' 
TABS,ioos:station:wmo:42045:1,2015-05-04T07:30:00Z,26.2168,-96.4998,4.0,6.553411325,141.9412829,7.9,'11111222,11111222,11111222' 
TABS,ioos:station:wmo:42045:1,2015-05-04T08:00:00Z,26.2168,-96.4998,4.0,6.702096687,142.8226367,8.07,'11111222,11111222,11111222' 
TABS,ioos:station:wmo:42045:1,2015-05-04T08:30:00Z,26.2168,-96.4998,4.0,6.417483931,141.8982326,7.39,'11111222,11111222,11111222' 
TABS,ioos:station:wmo:42045:1,2015-05-04T09:00:00Z,26.2168,-96.4998,4.0,6.029941957,141.0585427,7.1,'11111222,11111222,11111222' 
TABS,ioos:station:wmo:42045:1,2015-05-04T09:30:00Z,26.2168,-96.4998,4.0,5.842687738,140.835091,7.42,'11111222,11111222,11111222' 
TABS,ioos:station:wmo:42045:1,2015-05-04T10:00:00Z,26.2168,-96.4998,4.0,5.82897075,138.2688133,6.87,'11111222,11111222,11111222' 
TABS,ioos:station:wmo:42045:1,2015-05-04T10:30:00Z,26.2168,-96.4998,4.0,6.152625456,135.922235,7.21,'11111222,11111222,11111222' 
TABS,ioos:station:wmo:42045:1,2015-05-04T11:00:00Z,26.2168,-96.4998,4.0,6.177450931,132.8355316,7.67,'11111222,11111222,11111222' 
TABS,ioos:station:wmo:42045:1,2015-05-04T11:30:00Z,26.2168,-96.4998,4.0,5.756700444,134.014984,6.53,'11111222,11111222,11111222' 
TABS,ioos:station:wmo:42045:1,2015-05-04T12:00:00Z,26.2168,-96.4998,4.0,5.690219679,132.5788083,6.63,'11111222,11111222,11111222' 
TABS,ioos:station:wmo:42045:1,2015-05-04T12:30:00Z,26.2168,-96.4998,4.0,5.792175757,136.0495692,7.32,'11111222,11111222,11111222' 
TABS,ioos:station:wmo:42045:1,2015-05-04T13:00:00Z,26.2168,-96.4998,4.0,5.446558546,133.5124516,6.44,'11111222,11111222,11111222' 
TABS,ioos:station:wmo:42045:1,2015-05-04T13:30:00Z,26.2168,-96.4998,4.0,5.627477232,123.9163154,6.63,'11111222,11111222,11111222' 
TABS,ioos:station:wmo:42045:1,2015-05-04T14:00:00Z,26.2168,-96.4998,4.0,5.100784253,121.6961548,6.25,'11111222,11111222,11111222' 
TABS,ioos:station:wmo:42045:1,2015-05-04T14:30:00Z,26.2168,-96.4998,4.0,4.652923812,120.4783814,5.76,'11111222,11111222,11111222' 
TABS,ioos:station:wmo:42045:1,2015-05-04T15:00:00Z,26.2168,-96.4998,4.0,4.89189125,121.968484,5.98,'11111222,11111222,11111222' 
TABS,ioos:station:wmo:42045:1,2015-05-04T15:30:00Z,26.2168,-96.4998,4.0,4.830372656,117.3611317,6.0,'11111222,11111222,11111222' 
TABS,ioos:station:wmo:42045:1,2015-05-04T16:00:00Z,26.2168,-96.4998,4.0,5.401453508,110.4819276,6.71,'11111222,11111222,11111222' 
TABS,ioos:station:wmo:42045:1,2015-05-04T16:30:00Z,26.2168,-96.4998,4.0,5.579838707,109.799251,6.57,'11111222,11111222,11111222' 
TABS,ioos:station:wmo:42045:1,2015-05-04T17:00:00Z,26.2168,-96.4998,4.0,5.445475186,108.6349622,6.48,'11111222,11111222,11111222' 
TABS,ioos:station:wmo:42045:1,2015-05-04T17:30:00Z,26.2168,-96.4998,4.0,5.33258849,115.0756745,6.37,'11111222,11111222,11111222' 
TABS,ioos:station:wmo:42045:1,2015-05-04T18:00:00Z,26.2168,-96.4998,4.0,4.850505128,113.447123,6.55,'11111222,11111222,11111222' 
TABS,ioos:station:wmo:42045:1,2015-05-04T18:30:00Z,26.2168,-96.4998,4.0,4.882714409,118.7700199,6.12,'11111222,11111222,11111222' 